Crane Lake, MN

10:27 PM CST on January 19, 2018 (GMT -0600)
Crane Lake

Weather History for KCDD - November, 2012

Change the Weather History Date:

Wednesday, November 7, 2012

  Actual Average Record
Temperature  
Mean Temperature 32 °F -  
Max Temperature 37 °F 35 °F 62 °F (2016)
Min Temperature 28 °F 23 °F 3 °F (2017)
Degree Days  
Heating Degree Days 32    
Moisture  
Dew Point 33 °F    
Average Humidity 98    
Maximum Humidity 100    
Minimum Humidity 93    
Precipitation  
Precipitation 0.00 in - - ()
Sea Level Pressure  
Sea Level Pressure 30.02 in    
Wind  
Wind Speed 0 mph (SSW)    
Max Wind Speed 5 mph    
Max Gust Speed -    
Visibility 7 miles    
Events Rain    
Averages and records for this station are not official NWS values.
T = Trace of Precipitation, MM = Missing Value Source: NWS Daily Summary

Daily Weather History Graph

Daily Weather History Graph

Search for Another Location

Airport or City:

Trip Planner

Search our weather history database for the weather conditions in past years. The results will help you decide how hot, cold, wet, or windy it might be!

Date:

Astronomy

Nov. 07, 2012 Rise Set
Actual Time 7:05 AM CST 4:41 PM CST
Civil Twilight 6:32 AM CST 5:14 PM CST
Nautical Twilight 5:54 AM CST 5:51 PM CST
Astronomical Twilight 5:18 AM CST 6:28 PM CST
Moon No Moon Rise 1:19 PM CST (11/7)
Length of Visible Light 10h 42m
Length of Day
9h 35m
Last Quarter, 43% of the Moon is Illuminated
Nov 7
Last Quarter
Nov 13
New
Nov 20
First Quarter
Nov 28
Full
Dec 6
Last Quarter

Hourly Weather History & Observations

Time (CST) Temp. Windchill Dew Point Humidity Pressure Visibility Wind Dir Wind Speed Gust Speed Precip Events Conditions
12:07 AM 35.6 °F - 33.8 °F 93% 29.94 in 7.0 mi Calm Calm - N/A   Overcast
12:27 AM 35.6 °F - 33.8 °F 93% 29.95 in 7.0 mi Calm Calm - N/A   Overcast
12:47 AM 35.6 °F - 33.8 °F 93% 29.96 in 7.0 mi Calm Calm - N/A   Overcast
1:07 AM 35.6 °F - 33.8 °F 93% 29.96 in 7.0 mi Calm Calm - N/A   Overcast
1:27 AM 35.6 °F - 33.8 °F 93% 29.96 in 5.0 mi Calm Calm - N/A   Overcast
1:47 AM 35.6 °F - 33.8 °F 93% 29.97 in 7.0 mi Calm Calm - N/A   Overcast
2:07 AM 33.8 °F - 33.8 °F 100% 29.97 in 5.0 mi Calm Calm - N/A   Overcast
2:47 AM 33.8 °F - 33.8 °F 100% 29.98 in 5.0 mi Calm Calm - N/A   Overcast
3:07 AM 33.8 °F - 33.8 °F 100% 29.99 in 5.0 mi Calm Calm - N/A   Overcast
3:27 AM 35.6 °F - 33.8 °F 93% 29.99 in 7.0 mi Calm Calm - N/A   Overcast
3:47 AM 35.6 °F - 33.8 °F 93% 29.99 in 7.0 mi Calm Calm - N/A   Overcast
4:07 AM 35.6 °F - 33.8 °F 93% 29.99 in 7.0 mi Calm Calm - N/A   Overcast
4:27 AM 35.6 °F - 33.8 °F 93% 30.00 in 5.0 mi Calm Calm - N/A   Overcast
4:47 AM 35.6 °F - 33.8 °F 93% 30.00 in 3.0 mi Calm Calm - N/A   Overcast
5:07 AM 35.6 °F - 33.8 °F 93% 30.01 in 3.0 mi Calm Calm - N/A   Overcast
5:27 AM 35.6 °F - 33.8 °F 93% 30.01 in 2.5 mi Calm Calm - N/A   Light Drizzle
5:47 AM 35.6 °F - 33.8 °F 93% 30.02 in 3.0 mi Calm Calm - N/A   Overcast
6:07 AM 33.8 °F - 33.8 °F 100% 30.02 in 4.0 mi Calm Calm - N/A   Overcast
6:27 AM 33.8 °F - 33.8 °F 100% 30.01 in 2.5 mi Calm Calm - N/A   Overcast
6:47 AM 33.8 °F - 33.8 °F 100% 30.03 in 4.0 mi Calm Calm - N/A   Overcast
7:07 AM 33.8 °F 30.8 °F 33.8 °F 100% 30.04 in 2.0 mi WSW 3.5 mph - N/A   Overcast
7:27 AM 33.8 °F - 33.8 °F 100% 30.04 in 1.5 mi Calm Calm - N/A   Overcast
7:47 AM 33.8 °F - 33.8 °F 100% 30.05 in 1.8 mi Calm Calm - N/A   Drizzle
8:07 AM 33.8 °F - 33.8 °F 100% 30.05 in 2.0 mi Calm Calm - N/A   Overcast
8:27 AM 33.8 °F - 33.8 °F 100% 30.05 in 1.8 mi Calm Calm - N/A   Overcast
8:47 AM 33.8 °F 29.6 °F 33.8 °F 100% 30.06 in 2.0 mi West 4.6 mph - N/A   Overcast
9:07 AM 33.8 °F - 33.8 °F 100% 30.06 in 1.2 mi Calm Calm - N/A   Light Drizzle
9:27 AM 33.8 °F - 33.8 °F 100% 30.06 in 2.5 mi Calm Calm - N/A   Overcast
9:47 AM 33.8 °F - 33.8 °F 100% 30.06 in 3.0 mi Calm Calm - N/A   Drizzle
10:07 AM 33.8 °F - 33.8 °F 100% 30.06 in 5.0 mi Calm Calm - N/A   Light Drizzle
10:27 AM 35.6 °F - 33.8 °F 93% 30.06 in 4.0 mi Calm Calm - N/A Rain Rain
10:47 AM 35.6 °F - 35.6 °F 100% 30.05 in 5.0 mi Calm Calm - N/A   Light Drizzle
11:07 AM 35.6 °F - 35.6 °F 100% 30.05 in 10.0 mi Calm Calm - N/A   Overcast
11:27 AM 37.4 °F - 37.4 °F 100% 30.05 in 10.0 mi Calm Calm - N/A   Overcast
11:47 AM 35.6 °F - 35.6 °F 100% 30.05 in 10.0 mi Calm Calm - N/A   Overcast
12:07 PM 37.4 °F - 37.4 °F 100% 30.04 in 10.0 mi Calm Calm - N/A   Overcast
12:27 PM 37.4 °F 34.9 °F 37.4 °F 100% 30.04 in 10.0 mi SSW 3.5 mph - N/A   Overcast
12:47 PM 37.4 °F 34.9 °F 37.4 °F 100% 30.04 in 10.0 mi WSW 3.5 mph - N/A   Overcast
1:07 PM 37.4 °F 34.9 °F 37.4 °F 100% 30.04 in 10.0 mi WSW 3.5 mph - N/A   Overcast
1:27 PM 37.4 °F - 37.4 °F 100% 30.03 in 10.0 mi Calm Calm - N/A   Overcast
1:47 PM 37.4 °F - 37.4 °F 100% 30.03 in 10.0 mi Calm Calm - N/A   Overcast
2:07 PM 37.4 °F - 37.4 °F 100% 30.04 in 10.0 mi Calm Calm - N/A   Overcast
2:27 PM 37.4 °F - 37.4 °F 100% 30.04 in 10.0 mi Calm Calm - N/A   Overcast
2:47 PM 37.4 °F 34.9 °F 37.4 °F 100% 30.03 in 10.0 mi South 3.5 mph - N/A   Overcast
3:07 PM 37.4 °F 34.9 °F 37.4 °F 100% 30.04 in 10.0 mi South 3.5 mph - N/A   Overcast
3:32 PM 37.4 °F - 37.4 °F 100% 30.05 in 10.0 mi Calm Calm - N/A   Overcast
3:47 PM 37.4 °F - 37.4 °F 100% 30.04 in 10.0 mi Calm Calm - N/A   Overcast
4:07 PM 35.6 °F - 35.6 °F 100% 30.04 in 10.0 mi Calm Calm - N/A   Overcast
4:27 PM 35.6 °F - 33.8 °F 93% 30.05 in 10.0 mi Calm Calm - N/A   Overcast
4:47 PM 33.8 °F - 33.8 °F 100% 30.04 in 10.0 mi Calm Calm - N/A   Overcast
5:07 PM 30.2 °F - 30.2 °F 100% 30.04 in 10.0 mi Calm Calm - N/A   Mostly Cloudy
5:27 PM 30.2 °F - 30.2 °F 100% 30.04 in 10.0 mi Calm Calm - N/A   Overcast
5:47 PM 30.2 °F - 28.4 °F 93% 30.04 in 10.0 mi Calm Calm - N/A   Mostly Cloudy
6:07 PM 28.4 °F - 28.4 °F 100% 30.03 in 10.0 mi Calm Calm - N/A   Scattered Clouds
6:27 PM 28.4 °F - 28.4 °F 100% 30.03 in 10.0 mi Calm Calm - N/A   Scattered Clouds
6:47 PM 28.4 °F - 28.4 °F 100% 30.02 in 10.0 mi Calm Calm - N/A   Clear
7:07 PM 30.2 °F - 28.4 °F 93% 30.01 in 7.0 mi Calm Calm - N/A   Clear
7:27 PM 30.2 °F - 28.4 °F 93% 30.01 in 10.0 mi Calm Calm - N/A   Clear
7:47 PM 30.2 °F - 30.2 °F 100% 30.01 in 10.0 mi Calm Calm - N/A   Clear
8:07 PM 28.4 °F - 28.4 °F 100% 30.01 in 7.0 mi Calm Calm - N/A   Scattered Clouds
8:27 PM 28.4 °F - 28.4 °F 100% 30.01 in 10.0 mi Calm Calm - N/A   Scattered Clouds
8:47 PM 30.2 °F - 28.4 °F 93% 30.01 in 10.0 mi Calm Calm - N/A   Mostly Cloudy
9:07 PM 30.2 °F - 30.2 °F 100% 30.01 in 10.0 mi Calm Calm - N/A   Mostly Cloudy
9:27 PM 30.2 °F - 30.2 °F 100% 30.02 in 10.0 mi Calm Calm - N/A   Mostly Cloudy
9:47 PM 30.2 °F - 30.2 °F 100% 30.01 in 7.0 mi Calm Calm - N/A   Overcast
10:07 PM 32.0 °F - 30.2 °F 93% 30.01 in 10.0 mi Calm Calm - N/A   Overcast
10:27 PM 32.0 °F 28.7 °F 30.2 °F 93% 29.99 in 10.0 mi ESE 3.5 mph - N/A   Overcast
10:47 PM 32.0 °F 28.7 °F 32.0 °F 100% 29.98 in 10.0 mi SSE 3.5 mph - N/A   Mostly Cloudy
11:07 PM 32.0 °F - 32.0 °F 100% 29.98 in 10.0 mi Calm Calm - N/A   Scattered Clouds
11:27 PM 32.0 °F - 32.0 °F 100% 29.97 in 10.0 mi Calm Calm - N/A   Mostly Cloudy
11:47 PM 33.8 °F - 32.0 °F 93% 29.97 in 10.0 mi Calm Calm - N/A   Overcast